Voltar ao catálogo

COSMOS 970 DEB

AtivoLEO
NORAD 65003·DEBRIS·🇷🇺 Russia

Lançado Dec 21, 1977 de Baikonur Cosmodrome

Loading…

Próximas Passagens (próximas 24 horas)

TLE

ObsoletoSource: Space-Track

Época: Sep 2, 2026, 19:44 UTC

1 65003U 77121DQ  26245.82237405  .00000142  00000-0  21253-3 0  9995
2 65003  65.8425 317.8841 0108599  40.3819 320.5243 13.77990787190507

Acompanhe COSMOS 970 DEB em tempo real com AllMySat

Download on the App Store